Regional Weather Roundup
Issued by NWS Mt. Holly, NJ

Current Version | Previous Version | Text Only | Print | Product List | Glossary On
Versions: 1 2 3 4 5 6 7 8 9 10 11 12 13 14 15 16 17 18 19 20 21 22 23 24 25 26 27 28 29 30 31 32 33 34 35 36 37 38 39 40 41 42 43 44 45 46 47
000
ASUS41 KPHI 290012
RWRPHI

REGIONAL WEATHER ROUNDUP
NATIONAL WEATHER SERVICE MOUNT HOLLY NJ
800 PM EDT TUE JUL 28 2015

NOTE:  "FAIR" INDICATES FEW OR NO CLOUDS BELOW 12,000 FEET WITH NO
SIGNIFICANT WEATHER AND/OR OBSTRUCTIONS TO VISIBILITY.

 * = STATION DOES NOT REPORT PRECIPITATION (E.G. RAIN, SNOW, ETC.)
        OR FOG.

NJZ015>026-290100-
SOUTHERN NEW JERSEY

CITY           SKY/WX    TMP DP  RH WIND       PRES   REMARKS
POMONA         CLOUDY    76  73  91 CALM      29.98R
6HR MIN TEMP:  74; 6HR MAX TEMP:  87; 6HR PCP:  0.25;

RIO GRANDE*    CLEAR     81  72  74 S9        29.99R
MILLVILLE      PTCLDY    79  70  74 SE6       29.99R
WRIGHTSTOWN    CLEAR     81  71  71 S5        29.95R
MOUNT HOLLY    CLEAR     81  72  74 SE3       29.96R
TRENTON        CLEAR     88  63  43 N3        29.96R
6HR MIN TEMP:  88; 6HR MAX TEMP:  94;


$$
NJZ001>014-290100-
NORTHERN NEW JERSEY

CITY           SKY/WX    TMP DP  RH WIND       PRES   REMARKS
SUSSEX         CLEAR     80  69  69 W3        29.97S
ANDOVER*         N/A     79  68  69 CALM      29.97F
MORRISTOWN     PTCLDY    84  63  48 CALM      29.95R
NEWARK         PTCLDY    87  70  56 S6        29.94R HX  92
TETERBORO      MOCLDY    88  64  44 S8        29.93R
CALDWELL       CLEAR     88  60  38 NW3       29.95R
SOMERVILLE     CLEAR     81  65  58 CALM      29.94R
ALLAIRE*       CLEAR     82  68  61 SW5       29.97S
TOMS RIVER*    CLEAR     81  73  78 S5        29.98R

$$
PAZ043-044-047-054-055-060>062-066>071-290100-
EASTERN PENNSYLVANIA

CITY           SKY/WX    TMP DP  RH WIND       PRES   REMARKS
PHILADELPHIA   PTCLDY    88  70  55 SW8       29.96R HX  93
6HR MIN TEMP:  88; 6HR MAX TEMP:  93;

NORTH PHILA    CLEAR     87  66  49 S3        29.97R
BLUE BELL      CLEAR     79  73  83 CALM      29.97R
DOYLESTOWN     CLEAR     79  65  62 CALM      29.97R
QUAKERTOWN*    CLEAR     84  68  58 CALM      29.99R
POTTSTOWN      CLEAR     83  70  64 CALM      29.99R
LANCASTER      CLEAR     84  68  58 CALM      29.98R
COATESVILLE    CLEAR     82  72  69 CALM      30.00R
READING        CLEAR     86  61  42 W3        29.96R
6HR MIN TEMP:  86; 6HR MAX TEMP:  92;

ALLENTOWN      CLEAR     86  65  49 CALM      29.96S
6HR MIN TEMP:  86; 6HR MAX TEMP:  92;

MOUNT POCONO   CLEAR     78  64  61 SW3       30.05S
6HR MIN TEMP:  78; 6HR MAX TEMP:  85;

HAZLETON       CLEAR     75  59  57 CALM      30.06F
WILKES BARRE   CLEAR     86  64  47 W3        29.99S

$$
DEZALL-MDZ008-012-015-019-020-290100-
DELAWARE AND EASTERN MARYLAND

CITY           SKY/WX    TMP DP  RH WIND       PRES   REMARKS
WILMINGTON     MOCLDY    83  74  74 S12       29.98R
6HR MIN TEMP:  83; 6HR MAX TEMP:  89;

DOVER          CLEAR     82  75  78 S7        29.96R
GEORGETOWN     PTCLDY    76  71  85 CALM      29.98R
6HR MIN TEMP:  76; 6HR MAX TEMP:  88;

EASTON         PTCLDY    86  73  66 SW8       30.00S HX  93
ABERDEEN       CLEAR     84  68  58 CALM      29.95S
PATUXENT       MOCLDY    79  72  79 CALM      29.96F
OCEAN CITY     MOCLDY    81  72  74 SW7       29.98R
WALLOPS ISLAND PTCLDY    78  72  81 S6        29.99S
CAMBRIDGE      PTCLDY    81  72  74 S3        29.97S
SALISBURY      PTCLDY    77  74  90 SW3       29.98S

$$
PAZ001-021-NYZ056-072-MDZ011-DCZ001-290100-
OTHER NEARBY LOCATIONS

CITY           SKY/WX    TMP DP  RH WIND       PRES   REMARKS
HARRISBURG     PTCLDY    83  71  67 CALM      29.97R
STATE COLLEGE  CLEAR     81  66  61 CALM      30.01F
WILLIAMSPORT   CLEAR     83  64  52 CALM      29.96F
BINGHAMTON     CLEAR     79  61  53 N6        30.04R
NEW YORK CITY  CLEAR     85  63  47 CALM      29.98R
BALTIMORE      PTCLDY    84  70  62 S3        29.96R
WASHINGTON DC  MOCLDY    81  72  74 SW8       29.98R

$$



USA.gov is the U.S. government's official web portal to all federal, state and local government web resources and services.